EW6098 Weather Reports


time (UTC)temp
C
wind
direction
speed
KPH
gust
KPH
rain 1hr
cm
rain 24hr
cm
rain mn
cm
humidity
%
barometer
mb
20260507232544 9 311 1.6 3.2 0.00 0.00 0.00 82 1012.1
20260507231532 8 317 0.0 1.6 0.00 0.00 0.00 83 1012.1
20260507230520 8 333 0.0 1.6 0.00 0.00 0.00 83 1012.1
20260507225528 8 0.0 0.0 0.00 0.00 0.00 83 1012.1
20260507224517 8 319 0.0 3.2 0.00 0.00 0.00 83 1012.1
20260507223526 9 339 0.0 1.6 0.00 0.00 0.00 82 1012.1
20260507222534 9 11 0.0 3.2 0.00 0.00 0.00 82 1012.0
20260507221522 8 0.0 0.0 0.00 0.00 0.00 83 1012.0
20260507220531 8 322 0.0 3.2 0.00 0.00 0.00 83 1012.0
20260507215519 8 0.0 0.0 0.00 0.00 0.00 83 1012.1
20260507214548 9 0.0 0.0 0.00 0.00 0.00 82 1012.0
20260507213516 9 333 0.0 3.2 0.00 0.00 0.00 82 1012.0
20260507212525 9 329 0.0 1.6 0.00 0.00 0.00 81 1012.1
20260507211533 9 335 0.0 3.2 0.00 0.00 0.00 80 1012.0
20260507210522 10 0.0 0.0 0.00 0.00 0.00 78 1012.1
20260507205530 10 345 0.0 3.2 0.00 0.00 0.00 76 1012.0
20260507204518 11 263 1.6 9.7 0.00 0.00 0.00 75 1011.9
20260507203546 11 22 0.0 1.6 0.00 0.00 0.00 74 1011.9
20260507202535 11 281 1.6 4.8 0.00 0.00 0.00 73 1011.7
20260507201524 11 284 3.2 11.3 0.00 0.00 0.00 73 1011.7
20260507200553 11 252 3.2 11.3 0.00 0.00 0.00 72 1011.5
20260507195601 11 263 3.2 9.7 0.00 0.00 0.00 72 1011.5
20260507194530 11 214 3.2 6.4 0.00 0.00 0.00 72 1011.5
20260507193518 11 264 3.2 6.4 0.00 0.00 0.00 71 1011.5
20260507192527 11 298 3.2 6.4 0.00 0.00 0.00 71 1011.3
20260507191535 12 286 1.6 6.4 0.00 0.00 0.00 71 1011.3
20260507190522 12 302 3.2 6.4 0.00 0.00 0.00 70 1011.3
20260507185530 12 297 1.6 6.4 0.00 0.00 0.00 71 1011.2
20260507184538 11 282 1.6 4.8 0.00 0.00 0.00 72 1011.1
20260507183527 11 276 1.6 4.8 0.00 0.00 0.00 75 1011.2
20260507182535 11 313 0.0 1.6 0.00 0.00 0.00 75 1011.2
20260507181524 11 322 0.0 1.6 0.00 0.00 0.00 74 1011.2
20260507180533 11 301 0.0 1.6 0.00 0.00 0.00 73 1011.2
20260507175522 11 324 0.0 1.6 0.00 0.00 0.00 73 1011.3
20260507174532 12 325 0.0 1.6 0.00 0.00 0.00 74 1011.2
20260507173520 12 233 0.0 3.2 0.00 0.00 0.00 76 1011.3
20260507172529 12 0.0 0.0 0.00 0.00 0.00 76 1011.2
20260507171517 11 0.0 0.0 0.00 0.00 0.00 78 1011.4
20260507170526 10 0.0 0.0 0.00 0.00 0.00 80 1011.3
20260507165535 10 331 0.0 1.6 0.00 0.00 0.00 82 1011.4
20260507164523 10 0.0 0.0 0.00 0.00 0.00 82 1011.5
20260507163532 10 326 0.0 1.6 0.00 0.00 0.00 82 1011.5
20260507162540 10 346 0.0 3.2 0.00 0.00 0.00 82 1011.6
20260507161528 10 24 1.6 4.8 0.00 0.00 0.00 84 1011.8
20260507160517 9 10 1.6 3.2 0.00 0.00 0.00 85 1011.8
20260507155525 9 7 1.6 3.2 0.00 0.00 0.00 85 1011.6
20260507154554 10 3 1.6 4.8 0.00 0.00 0.00 84 1012.0
20260507153543 10 51 3.2 9.7 0.00 0.00 0.00 81 1012.1
20260507152551 11 35 3.2 9.7 0.00 0.00 0.00 76 1012.0
20260507151519 12 350 1.6 3.2 0.00 0.00 0.00 74 1011.8
20260507150528 12 349 1.6 4.8 0.00 0.00 0.00 73 1011.9
20260507145516 13 326 3.2 9.7 0.00 0.00 0.00 67 1011.8
20260507144545 13 270 3.2 9.7 0.00 0.00 0.00 66 1011.6
20260507143534 13 253 3.2 9.7 0.00 0.00 0.00 65 1011.7
20260507142522 13 297 3.2 6.4 0.00 0.00 0.00 66 1011.8
20260507141530 13 275 3.2 9.7 0.00 0.00 0.00 65 1011.8
20260507140519 13 270 3.2 9.7 0.00 0.00 0.00 65 1011.9
20260507135527 13 231 3.2 6.4 0.00 0.00 0.00 66 1011.9
20260507134516 14 261 3.2 9.7 0.00 0.00 0.00 65 1012.0
20260507133524 13 294 3.2 6.4 0.00 0.00 0.00 66 1012.1
20260507132533 13 260 3.2 9.7 0.00 0.00 0.00 66 1012.1
20260507131541 13 271 3.2 12.9 0.00 0.00 0.00 65 1012.2
20260507130650 13 310 3.2 6.4 0.00 0.00 0.00 66 1012.4
20260507125518 13 219 1.6 9.7 0.00 0.00 0.00 65 1012.3
20260507124527 13 304 3.2 6.4 0.00 0.00 0.00 67 1012.4
20260507123516 12 284 3.2 9.7 0.00 0.00 0.00 69 1012.6
20260507122525 12 277 3.2 6.4 0.00 0.00 0.00 70 1012.5
20260507121533 12 317 1.6 4.8 0.00 0.00 0.00 71 1012.7
20260507120542 11 325 1.6 4.8 0.00 0.00 0.00 72 1012.6
20260507115531 11 293 1.6 6.4 0.00 0.00 0.00 73 1012.7
20260507114519 11 240 1.6 6.4 0.00 0.00 0.00 72 1012.7
20260507113528 11 301 1.6 4.8 0.00 0.00 0.00 73 1012.8
20260507112557 11 337 3.2 4.8 0.00 0.00 0.00 72 1012.8
20260507111525 11 305 1.6 3.2 0.00 0.00 0.00 73 1012.8
20260507110534 11 305 3.2 9.7 0.00 0.00 0.00 72 1012.8
20260507105520 11 282 1.6 6.4 0.00 0.00 0.00 73 1012.8
20260507104547 11 326 1.6 4.8 0.00 0.00 0.00 72 1012.8
20260507103556 11 288 3.2 11.3 0.00 0.00 0.00 69 1012.8
20260507102522 12 306 1.6 4.8 0.00 0.00 0.00 69 1012.7
20260507101530 12 342 0.0 3.2 0.00 0.00 0.00 68 1012.7
20260507100538 11 312 0.0 3.2 0.00 0.00 0.00 68 1012.8
20260507095527 12 345 0.0 3.2 0.00 0.00 0.00 66 1012.6
20260507094515 12 347 1.6 3.2 0.00 0.00 0.00 66 1012.6
20260507093524 12 336 1.6 3.2 0.00 0.00 0.00 66 1012.6
20260507092552 12 327 1.6 3.2 0.00 0.00 0.00 67 1012.8
20260507091541 12 284 1.6 4.8 0.00 0.00 0.00 65 1012.7
20260507090529 12 339 1.6 3.2 0.00 0.00 0.00 66 1012.8
20260507085518 12 34 1.6 3.2 0.00 0.00 0.00 66 1012.8
20260507084526 12 113 1.6 3.2 0.00 0.00 0.00 65 1012.9
20260507083535 12 310 1.6 3.2 0.00 0.00 0.00 65 1012.9
20260507082523 12 276 1.6 4.8 0.00 0.00 0.00 65 1012.9
20260507081532 12 324 1.6 3.2 0.00 0.00 0.00 66 1012.8
20260507080521 11 10 1.6 3.2 0.00 0.00 0.00 67 1012.9
20260507075530 11 334 1.6 4.8 0.00 0.00 0.00 68 1013.0
20260507074518 10 2 1.6 4.8 0.00 0.00 0.00 69 1013.1
20260507073527 11 295 1.6 4.8 0.00 0.00 0.00 69 1013.1
20260507072535 11 338 0.0 3.2 0.00 0.00 0.00 68 1013.1
20260507071524 11 289 0.0 3.2 0.00 0.00 0.00 69 1013.1
20260507070532 10 310 1.6 3.2 0.00 0.00 0.00 73 1013.0
20260507065520 9 16 1.6 4.8 0.00 0.00 0.00 73 1013.0
20260507064529 8 353 1.6 1.6 0.00 0.00 0.00 77 1013.1
20260507063517 7 339 0.0 3.2 0.00 0.00 0.00 79 1013.2
20260507062525 7 312 1.6 4.8 0.00 0.00 0.00 81 1013.2
20260507061533 6 0.0 0.0 0.00 0.00 0.00 83 1013.1
20260507060602 6 0.0 0.0 0.00 0.00 0.00 85 1013.0
20260507055530 6 321 0.0 1.6 0.00 0.00 0.00 86 1013.1
20260507054538 5 0.0 0.0 0.00 0.00 0.00 87 1013.2
20260507053525 5 0.0 0.0 0.00 0.00 0.00 87 1013.2
20260507052613 5 0.0 0.0 0.00 0.00 0.00 87 1013.2
20260507051520 5 0.0 0.0 0.00 0.00 0.00 86 1013.2
20260507050529 5 333 0.0 1.6 0.00 0.00 0.00 86 1013.2
20260507045516 5 0.0 0.0 0.00 0.00 0.00 85 1013.3
20260507044524 5 0.0 0.0 0.00 0.00 0.00 84 1013.3
20260507043533 5 0.0 0.0 0.00 0.00 0.00 83 1013.2
20260507042521 5 0.0 0.0 0.00 0.00 0.00 83 1013.1
20260507041549 6 12 0.0 1.6 0.00 0.00 0.00 82 1013.1
20260507040517 6 4 0.0 3.2 0.00 0.00 0.00 82 1013.0
20260507035526 6 3 1.6 3.2 0.00 0.00 0.00 81 1013.2
20260507034555 6 2 1.6 3.2 0.00 0.00 0.00 82 1013.1
20260507033522 6 7 1.6 4.8 0.00 0.00 0.00 82 1013.3
20260507032531 6 351 1.6 3.2 0.00 0.00 0.00 83 1013.3
20260507031519 6 46 0.0 3.2 0.00 0.00 0.00 83 1013.4
20260507030528 5 0.0 0.0 0.00 0.00 0.00 82 1013.4
20260507025556 5 0.0 0.0 0.00 0.00 0.00 82 1013.4
20260507024524 5 354 0.0 1.6 0.00 0.00 0.00 82 1013.5
20260507023533 5 0.0 0.0 0.00 0.00 0.00 81 1013.5
20260507022540 6 0.0 0.0 0.00 0.00 0.00 81 1013.5
20260507021529 6 345 0.0 1.6 0.00 0.00 0.00 81 1013.6
20260507020517 6 359 0.0 1.6 0.00 0.00 0.00 80 1013.5
20260507015526 6 357 0.0 1.6 0.00 0.00 0.00 80 1013.6
20260507014535 6 353 0.0 1.6 0.00 0.00 0.00 80 1013.6
20260507013524 6 2 0.0 1.6 0.00 0.00 0.00 79 1013.7
20260507012534 6 12 1.6 3.2 0.00 0.00 0.00 78 1013.8
20260507011522 6 8 0.0 1.6 0.00 0.00 0.00 77 1013.7
20260507010530 6 356 0.0 1.6 0.00 0.00 0.00 76 1013.8
20260507005519 6 319 0.0 3.2 0.00 0.00 0.00 76 1013.9
20260507004527 6 326 0.0 3.2 0.00 0.00 0.00 75 1013.9
20260507003535 7 328 1.6 4.8 0.00 0.00 0.00 75 1014.0
20260507002523 7 320 0.0 3.2 0.00 0.00 0.00 74 1014.1
20260507001532 7 318 1.6 4.8 0.00 0.00 0.00 74 1014.0
20260507000521 7 228 1.6 4.8 0.00 0.00 0.00 73 1014.0
20260506235530 7 307 1.6 9.7 0.00 0.00 0.00 73 1014.2
20260506234518 7 183 1.6 4.8 0.00 0.00 0.00 74 1014.2
20260506233526 7 27 1.6 4.8 0.00 0.00 0.00 74 1014.3